Weather in Nôvo Mésto

Slovenia     45°47′59″N   15°10′48″E
temp.,
°C
wind,
m/s
gust,
m/s
humid.,
%
clouds,
%
prec.,
mm/h
press.,
hPa
HPBL,
m
14 august, sun
sun1423:00+15wnw118398 0.0 101429
02:00+13wnw229187 0.0 101421
05:00+13nw218971 0.0 101226
08:00+17nw11715 0.0 1012113
11:00+25se12455 0.0 10111039
14:00+27s213764 0.0 10102424
17:00+27ese123732 0.0 10081512
20:00+20sse22630 0.0 100813
15 august, mon
mon1523:00+17ssw11672 0.0 100911
02:00+16w117285 0.0 100811
05:00+15wnw1173100 0.0 100811
08:00+18wnw1164100 0.0 100868
11:00+26w123994 0.0 1008683
14:00+30s232844 0.0 10062643
17:00+28ssw443913 0.0 10061620
20:00+20sw117111 0.0 100611
16 august, tue
tue1623:00+17sw2285100 0.5 100919
02:00+16wnw2286100 0.5 100918
05:00+15w119077 0.0 101011
08:00+18nw12811 0.0 1011117
11:00+26nnw12524 0.0 1012987
14:00+30w123996 0.0 10112435
17:00+26w12585 0.0 1011292
20:00+22wnw11700 0.0 101111
17 august, wed
wed1723:00+19wnw11780 0.0 101312
02:00+18wnw11850 0.0 101313
05:00+17wnw11891 0.0 101214
08:00+21wnw12753 0.0 1013129
11:00+28w114699 0.0 10121032
14:00+31w243360 0.0 10112582
17:00+31wsw2435100 0.0 10102365
20:00+23wsw226897 0.0 101113
18 august, thu
thu1823:00+20sw22755 0.0 101216
02:00+19w227822 0.0 101224
05:00+18w117511 0.0 101113
08:00+21wnw1267100 0.0 101290
11:00+30w24395 0.0 10101026
14:00+31sw353586 0.0 10091467
17:00+31wsw4934100 0.0 10091781
20:00+21ssw11684 0.3 100812